Zurück zum Katalog

STARLINK-32001

AktivKommunikationVLEO
NORAD 60110·PAYLOAD·🇺🇸 United States

Gestartet Jun 23, 2024 von Cape Canaveral Space Force Station

Loading…

Nächste Überflüge (nächste 24 Stunden)

TLE

AktuellSource: CelesTrak SupGP

Epoche: Sep 14, 2026, 21:01 UTC

1 60110C 24117V   26257.87618056  .00044818  00000+0  13240-2 0  2579
2 60110  53.1566 235.6658 0001241 104.3506 120.4016 15.34371796    19

Verfolge STARLINK-32001 in Echtzeit mit AllMySat

Download on the App Store